STARLINK-1342, 45558

Orbit data source: Space-Track

STARLINK-1342, 45558 is a payload satellite owned by SpaceX/Seattle (US) in LEO that was launched on Wed, 22 Apr 2020 UTC via an FALCON 9 launch vehicle from the Air Force Eastern Test Range (AFETR). Payload-class satellites include a variety of spacecraft equipped with specific instruments for various scientific and technological missions. These include communications satellites like Starlink; space stations such as the ISS; scientific satellites like the Hubble; Earth observation satellites from companies like Planet Labs, Umbra, and HawkEye 360; GPS; miniature CubeSats for education and research; and military/defense satellites.

Not visible in the next 10 days
Identifier
45558, 2020-025AD
Orbit
LEO
Country
Flag of USUS
Related business
Manufacturer
SpaceX/Seattle
Mission
Partially operational Commercial Communications
Bus & Motor
STARLINK, Unknown motor
Mass
260 kg wet, ~248 kg dry
Launch date (UTC)
2020-04-22 (5 years ago)
Launch vehicle
FALCON 9
Launch site
Air Force Eastern Test Range (AFETR)
Object type
Payload
Rocket body
Debris
Shape & HBR
Box + 1 Pan, 4.4 m
Radar Cross Section
13.562 m², Large (>1 m²)

Expand to show TLE details & history
Last TLE update: 19 hours ago

TLE from 19 hours ago
0 STARLINK-1342
1 45558U 20025AD  25260.25009259  .00191332  24734-4  57849-3 0  9992
2 45558  53.0452 100.0648 0004555 100.1763 314.0185 15.91791737  6013
Epoch: 2025-09-17T06:00Z
TLE epoch observation values (Epoch: 2025-09-17T06:00:07.999Z)
Latitude
40.50852°
Longitude
53.32724°
Altitude
298.829 km
Speed
7.735 km/s
True Right ascension
09h 19m 09s
True Declination
40° 19' 37"
Sunlit
Object was in daylight at epoch
Visualization orbit readout
Latitude
Unknown
Longitude
Unknown
Altitude
Unknown
Speed
Unknown
Apparent Right ascension
Unknown
Apparent Declination
Unknown
Sunlit
N/A
Visualization observer readout
Local Sidereal Time
17:36:07
Azimuth
Unknown
Elevation
Unknown
Doppler factor
Unknown
Orbital elements
Apogee altitude
300.592 km
Perigee altitude
294.51 km
Semi-major axis
6,675.688 km
Eccentricity
0.00046
Inclination
53.0452°
RAAN
100.0648°
Arg. of periapsis
100.1763°
True anomaly
313.98095°
Mean anomaly
314.0185°
Eccentric anomaly
313.99973°
Mean motion
3.97923 °/min
Orbital period
90.47 mins
BSTAR
0.00057849
Loading maneuver chart data...
Computing Atmospheric mass density...
Loading historical data...
Loading historical data...
Loading historical data...
Loading historical data...
Loading historical data...
Loading historical data...
Loading historical data...

Documentation

Showing up to 5 results
|